[{"OBJECT_NAME":"GPS BIIR-08","OBJECT_ID":"2003-005A","EPOCH":"2026-09-11T14:28:20.052768","MEAN_MOTION":2.0055587,"ECCENTRICITY":0.01502251,"INCLINATION":54.8693,"RA_OF_ASC_NODE":211.5378,"ARG_OF_PERICENTER":53.5986,"MEAN_ANOMALY":121.372,"EPHEMERIS_TYPE":0,"CLASSIFICATION_TYPE":"U","NORAD_CAT_ID":27663,"ELEMENT_SET_NO":999,"REV_AT_EPOCH":17304,"BSTAR":0,"MEAN_MOTION_DOT":-1e-7,"MEAN_MOTION_DDOT":0},{"OBJECT_NAME":"GPS BIIR-11","OBJECT_ID":"2004-009A","EPOCH":"2026-09-10T21:31:57.660096","MEAN_MOTION":2.00573795,"ECCENTRICITY":0.0117973,"INCLINATION":54.7639,"RA_OF_ASC_NODE":272.2167,"ARG_OF_PERICENTER":176.3888,"MEAN_ANOMALY":2.1213,"EPHEMERIS_TYPE":0,"CLASSIFICATION_TYPE":"U","NORAD_CAT_ID":28190,"ELEMENT_SET_NO":999,"REV_AT_EPOCH":16466,"BSTAR":0,"MEAN_MOTION_DOT":-1.1e-7,"MEAN_MOTION_DDOT":0},{"OBJECT_NAME":"GPS BIIR-13","OBJECT_ID":"2004-045A","EPOCH":"2026-09-11T03:25:59.480256","MEAN_MOTION":2.00559594,"ECCENTRICITY":0.0172011,"INCLINATION":55.0798,"RA_OF_ASC_NODE":321.4298,"ARG_OF_PERICENTER":318.4975,"MEAN_ANOMALY":101.9612,"EPHEMERIS_TYPE":0,"CLASSIFICATION_TYPE":"U","NORAD_CAT_ID":28474,"ELEMENT_SET_NO":999,"REV_AT_EPOCH":16015,"BSTAR":0,"MEAN_MOTION_DOT":-7.9e-7,"MEAN_MOTION_DDOT":0},{"OBJECT_NAME":"GPS BIIR-14M","OBJECT_ID":"2005-038A","EPOCH":"2026-09-11T16:30:33.697728","MEAN_MOTION":2.00559724,"ECCENTRICITY":0.01287558,"INCLINATION":54.8134,"RA_OF_ASC_NODE":269.679,"ARG_OF_PERICENTER":297.4628,"MEAN_ANOMALY":121.8822,"EPHEMERIS_TYPE":0,"CLASSIFICATION_TYPE":"U","NORAD_CAT_ID":28874,"ELEMENT_SET_NO":999,"REV_AT_EPOCH":15357,"BSTAR":0,"MEAN_MOTION_DOT":-1.5e-7,"MEAN_MOTION_DDOT":0},{"OBJECT_NAME":"METEOSAT-9 (MSG-2)","OBJECT_ID":"2005-049B","EPOCH":"2026-09-12T02:08:49.413120","MEAN_MOTION":1.002736,"ECCENTRICITY":0.00018925,"INCLINATION":9.5547,"RA_OF_ASC_NODE":53.2842,"ARG_OF_PERICENTER":347.3065,"MEAN_ANOMALY":28.4077,"EPHEMERIS_TYPE":0,"CLASSIFICATION_TYPE":"U","NORAD_CAT_ID":28912,"ELEMENT_SET_NO":999,"REV_AT_EPOCH":787,"BSTAR":0,"MEAN_MOTION_DOT":0.00000113,"MEAN_MOTION_DDOT":0},{"OBJECT_NAME":"GPS BIIR-16M","OBJECT_ID":"2006-052A","EPOCH":"2026-09-12T04:08:01.008960","MEAN_MOTION":2.00562877,"ECCENTRICITY":0.00854041,"INCLINATION":54.924,"RA_OF_ASC_NODE":210.5606,"ARG_OF_PERICENTER":91.135,"MEAN_ANOMALY":269.8072,"EPHEMERIS_TYPE":0,"CLASSIFICATION_TYPE":"U","NORAD_CAT_ID":29601,"ELEMENT_SET_NO":999,"REV_AT_EPOCH":14515,"BSTAR":0,"MEAN_MOTION_DOT":-5e-8,"MEAN_MOTION_DDOT":0},{"OBJECT_NAME":"GPS BIIR-17M","OBJECT_ID":"2007-047A","EPOCH":"2026-09-11T23:33:51.141888","MEAN_MOTION":2.00551515,"ECCENTRICITY":0.0169011,"INCLINATION":54.1635,"RA_OF_ASC_NODE":76.4901,"ARG_OF_PERICENTER":89.4051,"MEAN_ANOMALY":272.5828,"EPHEMERIS_TYPE":0,"CLASSIFICATION_TYPE":"U","NORAD_CAT_ID":32260,"ELEMENT_SET_NO":999,"REV_AT_EPOCH":13855,"BSTAR":0,"MEAN_MOTION_DOT":-1.4e-7,"MEAN_MOTION_DDOT":0},{"OBJECT_NAME":"GPS BIIR-18M","OBJECT_ID":"2007-062A","EPOCH":"2026-09-12T07:24:22.568256","MEAN_MOTION":2.00564843,"ECCENTRICITY":0.0036015,"INCLINATION":54.9678,"RA_OF_ASC_NODE":270.643,"ARG_OF_PERICENTER":170.083,"MEAN_ANOMALY":195.912,"EPHEMERIS_TYPE":0,"CLASSIFICATION_TYPE":"U","NORAD_CAT_ID":32384,"ELEMENT_SET_NO":999,"REV_AT_EPOCH":13726,"BSTAR":0,"MEAN_MOTION_DOT":-1.8e-7,"MEAN_MOTION_DDOT":0},{"OBJECT_NAME":"GOES 14","OBJECT_ID":"2009-033A","EPOCH":"2026-09-12T04:44:33.737280","MEAN_MOTION":1.00071611,"ECCENTRICITY":0.00021161,"INCLINATION":1.9087,"RA_OF_ASC_NODE":81.8185,"ARG_OF_PERICENTER":90.4315,"MEAN_ANOMALY":335.1427,"EPHEMERIS_TYPE":0,"CLASSIFICATION_TYPE":"U","NORAD_CAT_ID":35491,"ELEMENT_SET_NO":999,"REV_AT_EPOCH":746,"BSTAR":0,"MEAN_MOTION_DOT":-0.00000153,"MEAN_MOTION_DDOT":0},{"OBJECT_NAME":"GOES 15","OBJECT_ID":"2010-008A","EPOCH":"2026-09-12T03:56:31.586208","MEAN_MOTION":1.00271451,"ECCENTRICITY":0.00051514,"INCLINATION":1.5126,"RA_OF_ASC_NODE":81.8555,"ARG_OF_PERICENTER":80.3249,"MEAN_ANOMALY":311.4374,"EPHEMERIS_TYPE":0,"CLASSIFICATION_TYPE":"U","NORAD_CAT_ID":36411,"ELEMENT_SET_NO":999,"REV_AT_EPOCH":6051,"BSTAR":0,"MEAN_MOTION_DOT":8e-8,"MEAN_MOTION_DDOT":0},{"OBJECT_NAME":"GSAT0101 (GALILEO-PFM)","OBJECT_ID":"2011-060A","EPOCH":"2026-09-11T15:54:44.036352","MEAN_MOTION":1.70475619,"ECCENTRICITY":0.00002522,"INCLINATION":56.9594,"RA_OF_ASC_NODE":339.4167,"ARG_OF_PERICENTER":59.2386,"MEAN_ANOMALY":300.8114,"EPHEMERIS_TYPE":0,"CLASSIFICATION_TYPE":"U","NORAD_CAT_ID":37846,"ELEMENT_SET_NO":999,"REV_AT_EPOCH":9259,"BSTAR":0,"MEAN_MOTION_DOT":-0.00000103,"MEAN_MOTION_DDOT":0},{"OBJECT_NAME":"GSAT0102 (GALILEO-FM2)","OBJECT_ID":"2011-060B","EPOCH":"2026-09-03T10:17:32.822304","MEAN_MOTION":1.70475714,"ECCENTRICITY":0.0001594,"INCLINATION":56.9635,"RA_OF_ASC_NODE":339.641,"ARG_OF_PERICENTER":329.3167,"MEAN_ANOMALY":62.9507,"EPHEMERIS_TYPE":0,"CLASSIFICATION_TYPE":"U","NORAD_CAT_ID":37847,"ELEMENT_SET_NO":999,"REV_AT_EPOCH":9246,"BSTAR":0,"MEAN_MOTION_DOT":-8.4e-7,"MEAN_MOTION_DDOT":0},{"OBJECT_NAME":"LUCH 5A","OBJECT_ID":"2011-074B","EPOCH":"2026-09-12T07:12:21.561984","MEAN_MOTION":1.00272684,"ECCENTRICITY":0.00038825,"INCLINATION":8.9694,"RA_OF_ASC_NODE":72.5067,"ARG_OF_PERICENTER":120.8575,"MEAN_ANOMALY":72.9739,"EPHEMERIS_TYPE":0,"CLASSIFICATION_TYPE":"U","NORAD_CAT_ID":37951,"ELEMENT_SET_NO":999,"REV_AT_EPOCH":5392,"BSTAR":0,"MEAN_MOTION_DOT":-6e-7,"MEAN_MOTION_DDOT":0},{"OBJECT_NAME":"METEOSAT-10 (MSG-3)","OBJECT_ID":"2012-035B","EPOCH":"2026-09-12T07:03:43.636320","MEAN_MOTION":1.00270691,"ECCENTRICITY":0.00008207,"INCLINATION":4.8739,"RA_OF_ASC_NODE":60.5319,"ARG_OF_PERICENTER":104.3128,"MEAN_ANOMALY":292.4627,"EPHEMERIS_TYPE":0,"CLASSIFICATION_TYPE":"U","NORAD_CAT_ID":38552,"ELEMENT_SET_NO":999,"REV_AT_EPOCH":5173,"BSTAR":0,"MEAN_MOTION_DOT":-1.9e-7,"MEAN_MOTION_DDOT":0},{"OBJECT_NAME":"SARSAT 13 (METOP-B)","OBJECT_ID":"2012-049A","EPOCH":"2026-09-12T06:18:17.277408","MEAN_MOTION":14.21458567,"ECCENTRICITY":0.0003457,"INCLINATION":98.6421,"RA_OF_ASC_NODE":304.9895,"ARG_OF_PERICENTER":95.3514,"MEAN_ANOMALY":264.8058,"EPHEMERIS_TYPE":0,"CLASSIFICATION_TYPE":"U","NORAD_CAT_ID":38771,"ELEMENT_SET_NO":999,"REV_AT_EPOCH":72563,"BSTAR":0.000047748208,"MEAN_MOTION_DOT":6.1e-7,"MEAN_MOTION_DDOT":0},{"OBJECT_NAME":"GPS BIIF-3","OBJECT_ID":"2012-053A","EPOCH":"2026-09-11T01:42:27.551808","MEAN_MOTION":2.00556923,"ECCENTRICITY":0.01854514,"INCLINATION":53.5962,"RA_OF_ASC_NODE":140.0783,"ARG_OF_PERICENTER":67.333,"MEAN_ANOMALY":294.6954,"EPHEMERIS_TYPE":0,"CLASSIFICATION_TYPE":"U","NORAD_CAT_ID":38833,"ELEMENT_SET_NO":999,"REV_AT_EPOCH":10116,"BSTAR":0,"MEAN_MOTION_DOT":1.4e-7,"MEAN_MOTION_DDOT":0},{"OBJECT_NAME":"GSAT0103 (GALILEO-FM3)","OBJECT_ID":"2012-055A","EPOCH":"2026-09-11T16:53:55.952448","MEAN_MOTION":1.70473471,"ECCENTRICITY":0.00020469,"INCLINATION":55.86,"RA_OF_ASC_NODE":99.1697,"ARG_OF_PERICENTER":315.2788,"MEAN_ANOMALY":44.7968,"EPHEMERIS_TYPE":0,"CLASSIFICATION_TYPE":"U","NORAD_CAT_ID":38857,"ELEMENT_SET_NO":999,"REV_AT_EPOCH":8648,"BSTAR":0,"MEAN_MOTION_DOT":1.5e-7,"MEAN_MOTION_DDOT":0},{"OBJECT_NAME":"GPS BIIF-4","OBJECT_ID":"2013-023A","EPOCH":"2026-09-10T22:31:43.991040","MEAN_MOTION":2.00563471,"ECCENTRICITY":0.0142242,"INCLINATION":54.4436,"RA_OF_ASC_NODE":265.4738,"ARG_OF_PERICENTER":51.142,"MEAN_ANOMALY":310.1467,"EPHEMERIS_TYPE":0,"CLASSIFICATION_TYPE":"U","NORAD_CAT_ID":39166,"ELEMENT_SET_NO":999,"REV_AT_EPOCH":9760,"BSTAR":0,"MEAN_MOTION_DOT":-8e-8,"MEAN_MOTION_DDOT":0},{"OBJECT_NAME":"INSAT-3D","OBJECT_ID":"2013-038B","EPOCH":"2026-09-12T05:57:57.441600","MEAN_MOTION":1.00272935,"ECCENTRICITY":0.00012995,"INCLINATION":2.1447,"RA_OF_ASC_NODE":81.3476,"ARG_OF_PERICENTER":111.6066,"MEAN_ANOMALY":17.3162,"EPHEMERIS_TYPE":0,"CLASSIFICATION_TYPE":"U","NORAD_CAT_ID":39216,"ELEMENT_SET_NO":999,"REV_AT_EPOCH":4795,"BSTAR":0,"MEAN_MOTION_DOT":-0.00000352,"MEAN_MOTION_DDOT":0},{"OBJECT_NAME":"GPS BIIF-5","OBJECT_ID":"2014-008A","EPOCH":"2026-09-11T22:30:05.178816","MEAN_MOTION":2.00565427,"ECCENTRICITY":0.00835894,"INCLINATION":53.6623,"RA_OF_ASC_NODE":145.7793,"ARG_OF_PERICENTER":231.5683,"MEAN_ANOMALY":127.7499,"EPHEMERIS_TYPE":0,"CLASSIFICATION_TYPE":"U","NORAD_CAT_ID":39533,"ELEMENT_SET_NO":999,"REV_AT_EPOCH":9142,"BSTAR":0,"MEAN_MOTION_DOT":1.3e-7,"MEAN_MOTION_DDOT":0},{"OBJECT_NAME":"LUCH 5V","OBJECT_ID":"2014-023A","EPOCH":"2026-09-12T00:40:05.422656","MEAN_MOTION":1.00270837,"ECCENTRICITY":0.00026582,"INCLINATION":5.3446,"RA_OF_ASC_NODE":68.7928,"ARG_OF_PERICENTER":139.8943,"MEAN_ANOMALY":247.126,"EPHEMERIS_TYPE":0,"CLASSIFICATION_TYPE":"U","NORAD_CAT_ID":39727,"ELEMENT_SET_NO":999,"REV_AT_EPOCH":4523,"BSTAR":0,"MEAN_MOTION_DOT":-0.00000281,"MEAN_MOTION_DDOT":0},{"OBJECT_NAME":"GPS BIIF-6","OBJECT_ID":"2014-026A","EPOCH":"2026-09-12T05:11:38.456448","MEAN_MOTION":2.00554703,"ECCENTRICITY":0.00392931,"INCLINATION":56.4493,"RA_OF_ASC_NODE":328.1268,"ARG_OF_PERICENTER":324.1701,"MEAN_ANOMALY":35.6287,"EPHEMERIS_TYPE":0,"CLASSIFICATION_TYPE":"U","NORAD_CAT_ID":39741,"ELEMENT_SET_NO":999,"REV_AT_EPOCH":9028,"BSTAR":0,"MEAN_MOTION_DOT":-9e-7,"MEAN_MOTION_DDOT":0},{"OBJECT_NAME":"GPS BIIF-7","OBJECT_ID":"2014-045A","EPOCH":"2026-09-11T19:22:48.412128","MEAN_MOTION":2.00564033,"ECCENTRICITY":0.00363455,"INCLINATION":55.4149,"RA_OF_ASC_NODE":85.0144,"ARG_OF_PERICENTER":119.86,"MEAN_ANOMALY":240.566,"EPHEMERIS_TYPE":0,"CLASSIFICATION_TYPE":"U","NORAD_CAT_ID":40105,"ELEMENT_SET_NO":999,"REV_AT_EPOCH":8781,"BSTAR":0,"MEAN_MOTION_DOT":3e-8,"MEAN_MOTION_DDOT":0},{"OBJECT_NAME":"GSAT0201 (GALILEO 5)","OBJECT_ID":"2014-050A","EPOCH":"2026-09-12T04:38:39.647616","MEAN_MOTION":1.85519597,"ECCENTRICITY":0.16863369,"INCLINATION":48.7843,"RA_OF_ASC_NODE":269.8594,"ARG_OF_PERICENTER":182.7547,"MEAN_ANOMALY":176.1917,"EPHEMERIS_TYPE":0,"CLASSIFICATION_TYPE":"U","NORAD_CAT_ID":40128,"ELEMENT_SET_NO":999,"REV_AT_EPOCH":7993,"BSTAR":0,"MEAN_MOTION_DOT":-3.4e-7,"MEAN_MOTION_DDOT":0}]